Year,Month,Day,Hour,Minute,Value (Times are PST for temperature in C)
2008,06,30,00,00,19.80
2008,06,30,00,01,19.80
2008,06,30,00,02,19.80
2008,06,30,00,03,19.70
2008,06,30,00,04,19.70
2008,06,30,00,05,19.70
2008,06,30,00,06,19.70
2008,06,30,00,07,19.70
2008,06,30,00,08,19.70
2008,06,30,00,09,19.70
2008,06,30,00,10,19.60
2008,06,30,00,11,19.60
2008,06,30,00,12,19.60
2008,06,30,00,13,19.60
2008,06,30,00,14,19.60
2008,06,30,00,15,19.60
2008,06,30,00,16,19.60
2008,06,30,00,17,19.50
2008,06,30,00,18,19.50
2008,06,30,00,19,19.50
2008,06,30,00,20,19.50
2008,06,30,00,21,19.50
2008,06,30,00,22,19.50
2008,06,30,00,23,19.50
2008,06,30,00,24,19.40
2008,06,30,00,25,19.40
2008,06,30,00,26,19.40
2008,06,30,00,27,19.40
2008,06,30,00,28,19.50
2008,06,30,00,29,19.50
2008,06,30,00,30,19.50
2008,06,30,00,31,19.60
2008,06,30,00,32,19.60
2008,06,30,00,33,19.60
2008,06,30,00,34,19.60
2008,06,30,00,35,19.60
2008,06,30,00,36,19.70
2008,06,30,00,37,19.70
2008,06,30,00,38,19.70
2008,06,30,00,39,19.70
2008,06,30,00,40,19.70
2008,06,30,00,41,19.60
2008,06,30,00,42,19.50
2008,06,30,00,43,19.50
2008,06,30,00,44,19.40
2008,06,30,00,45,19.30
2008,06,30,00,46,19.30
2008,06,30,00,47,19.30
2008,06,30,00,48,19.20
2008,06,30,00,49,19.20
2008,06,30,00,50,19.20
2008,06,30,00,51,19.20
2008,06,30,00,52,19.20
2008,06,30,00,53,19.20
2008,06,30,00,54,19.20
2008,06,30,00,55,19.20
2008,06,30,00,56,19.10
2008,06,30,00,57,19.10
2008,06,30,00,58,19.10
2008,06,30,00,59,19.10
2008,06,30,01,00,19.10
2008,06,30,01,01,19.10
2008,06,30,01,02,19.00
2008,06,30,01,03,19.00
2008,06,30,01,04,18.90
2008,06,30,01,05,18.90
2008,06,30,01,06,18.80
2008,06,30,01,07,18.80
2008,06,30,01,08,18.80
2008,06,30,01,09,18.80
2008,06,30,01,10,18.70
2008,06,30,01,11,18.70
2008,06,30,01,12,18.60
2008,06,30,01,13,18.60
2008,06,30,01,14,18.50
2008,06,30,01,15,18.50
2008,06,30,01,16,18.50
2008,06,30,01,17,18.40
2008,06,30,01,18,18.40
2008,06,30,01,19,18.40
2008,06,30,01,20,18.40
2008,06,30,01,21,18.40
2008,06,30,01,22,18.30
2008,06,30,01,23,18.30
2008,06,30,01,24,18.30
2008,06,30,01,25,18.30
2008,06,30,01,26,18.30
2008,06,30,01,27,18.30
2008,06,30,01,28,18.30
2008,06,30,01,29,18.30
2008,06,30,01,30,18.30
2008,06,30,01,31,18.30
2008,06,30,01,32,18.30
2008,06,30,01,33,18.30
2008,06,30,01,34,18.30
2008,06,30,01,35,18.30
2008,06,30,01,36,18.30
2008,06,30,01,37,18.20
2008,06,30,01,38,18.20
2008,06,30,01,39,18.20
2008,06,30,01,40,18.20
2008,06,30,01,41,18.20
2008,06,30,01,42,18.10
2008,06,30,01,43,18.10
2008,06,30,01,44,18.10
2008,06,30,01,45,18.10
2008,06,30,01,46,18.10
2008,06,30,01,47,18.00
2008,06,30,01,48,18.00
2008,06,30,01,49,18.00
2008,06,30,01,50,18.00
2008,06,30,01,51,18.00
2008,06,30,01,52,18.10
2008,06,30,01,53,18.10
2008,06,30,01,54,18.10
2008,06,30,01,55,18.10
2008,06,30,01,56,18.10
2008,06,30,01,57,18.10
2008,06,30,01,58,18.20
2008,06,30,01,59,18.20
2008,06,30,02,00,18.20
2008,06,30,02,01,18.20
2008,06,30,02,02,18.30
2008,06,30,02,03,18.30
2008,06,30,02,04,18.30
2008,06,30,02,05,18.40
2008,06,30,02,06,18.50
2008,06,30,02,07,18.50
2008,06,30,02,08,18.60
2008,06,30,02,09,18.60
2008,06,30,02,10,18.60
2008,06,30,02,11,18.60
2008,06,30,02,12,18.60
2008,06,30,02,13,18.70
2008,06,30,02,14,18.70
2008,06,30,02,15,18.70
2008,06,30,02,16,18.70
2008,06,30,02,17,18.80
2008,06,30,02,18,18.80
2008,06,30,02,19,18.80
2008,06,30,02,20,18.90
2008,06,30,02,21,18.90
2008,06,30,02,22,18.90
2008,06,30,02,23,18.90
2008,06,30,02,24,18.90
2008,06,30,02,25,18.90
2008,06,30,02,26,18.90
2008,06,30,02,27,18.90
2008,06,30,02,28,18.90
2008,06,30,02,29,18.90
2008,06,30,02,30,19.00
2008,06,30,02,31,19.00
2008,06,30,02,32,18.90
2008,06,30,02,33,18.90
2008,06,30,02,34,18.90
2008,06,30,02,35,18.80
2008,06,30,02,36,18.80
2008,06,30,02,37,18.80
2008,06,30,02,38,18.70
2008,06,30,02,39,18.70
2008,06,30,02,40,18.60
2008,06,30,02,41,18.60
2008,06,30,02,42,18.60
2008,06,30,02,43,18.60
2008,06,30,02,44,18.60
2008,06,30,02,45,18.60
2008,06,30,02,46,18.50
2008,06,30,02,47,18.50
2008,06,30,02,48,18.50
2008,06,30,02,49,18.40
2008,06,30,02,50,18.40
2008,06,30,02,51,18.40
2008,06,30,02,52,18.40
2008,06,30,02,53,18.40
2008,06,30,02,54,18.40
2008,06,30,02,55,18.30
2008,06,30,02,56,18.30
2008,06,30,02,57,18.30
2008,06,30,02,58,18.30
2008,06,30,02,59,18.30
2008,06,30,03,00,18.30
2008,06,30,03,01,18.30
2008,06,30,03,02,18.30
2008,06,30,03,03,18.30
2008,06,30,03,04,18.30
2008,06,30,03,05,18.30
2008,06,30,03,06,18.30
2008,06,30,03,07,18.20
2008,06,30,03,08,18.20
2008,06,30,03,09,18.20
2008,06,30,03,10,18.20
2008,06,30,03,11,18.20
2008,06,30,03,12,18.20
2008,06,30,03,13,18.20
2008,06,30,03,14,18.10
2008,06,30,03,15,18.10
2008,06,30,03,16,18.10
2008,06,30,03,17,18.10
2008,06,30,03,18,18.00
2008,06,30,03,19,17.90
2008,06,30,03,20,17.90
2008,06,30,03,21,17.90
2008,06,30,03,22,17.80
2008,06,30,03,23,17.80
2008,06,30,03,24,17.70
2008,06,30,03,25,17.80
2008,06,30,03,26,17.80
2008,06,30,03,27,17.80
2008,06,30,03,28,17.80
2008,06,30,03,29,17.80
2008,06,30,03,30,17.80
2008,06,30,03,31,17.90
2008,06,30,03,32,17.90
2008,06,30,03,33,17.90
2008,06,30,03,34,17.90
2008,06,30,03,35,17.90
2008,06,30,03,36,17.90
2008,06,30,03,37,17.90
2008,06,30,03,38,17.90
2008,06,30,03,39,17.90
2008,06,30,03,40,17.90
2008,06,30,03,41,17.90
2008,06,30,03,42,17.90
2008,06,30,03,43,17.90
2008,06,30,03,44,17.90
2008,06,30,03,45,17.90
2008,06,30,03,46,17.90
2008,06,30,03,47,17.90
2008,06,30,03,48,17.90
2008,06,30,03,49,17.90
2008,06,30,03,50,17.90
2008,06,30,03,51,17.90
2008,06,30,03,52,17.90
2008,06,30,03,53,17.90
2008,06,30,03,54,17.90
2008,06,30,03,55,17.90
2008,06,30,03,56,17.90
2008,06,30,03,57,17.90
2008,06,30,03,58,17.90
2008,06,30,03,59,17.90
2008,06,30,04,00,17.90
2008,06,30,04,01,17.90
2008,06,30,04,02,17.90
2008,06,30,04,03,17.90
2008,06,30,04,04,17.80
2008,06,30,04,05,17.80
2008,06,30,04,06,17.80
2008,06,30,04,07,17.80
2008,06,30,04,08,17.80
2008,06,30,04,09,17.80
2008,06,30,04,10,17.80
2008,06,30,04,11,17.80
2008,06,30,04,12,17.90
2008,06,30,04,13,17.90
2008,06,30,04,14,17.90
2008,06,30,04,15,17.90
2008,06,30,04,16,17.90
2008,06,30,04,17,17.90
2008,06,30,04,18,17.80
2008,06,30,04,19,17.90
2008,06,30,04,20,17.90
2008,06,30,04,21,17.90
2008,06,30,04,22,17.90
2008,06,30,04,23,17.90
2008,06,30,04,24,17.90
2008,06,30,04,25,17.90
2008,06,30,04,26,18.00
2008,06,30,04,27,18.00
2008,06,30,04,28,18.10
2008,06,30,04,29,18.10
2008,06,30,04,30,18.10
2008,06,30,04,31,18.10
2008,06,30,04,32,18.10
2008,06,30,04,33,18.10
2008,06,30,04,34,18.10
2008,06,30,04,35,18.10
2008,06,30,04,36,18.10
2008,06,30,04,37,18.10
2008,06,30,04,38,18.10
2008,06,30,04,39,18.10
2008,06,30,04,40,18.10
2008,06,30,04,41,18.10
2008,06,30,04,42,18.10
2008,06,30,04,43,18.10
2008,06,30,04,44,18.00
2008,06,30,04,45,18.00
2008,06,30,04,46,17.90
2008,06,30,04,47,17.90
2008,06,30,04,48,17.90
2008,06,30,04,49,17.90
2008,06,30,04,50,17.80
2008,06,30,04,51,17.80
2008,06,30,04,52,17.80
2008,06,30,04,53,17.80
2008,06,30,04,54,17.70
2008,06,30,04,55,17.70
2008,06,30,04,56,17.70
2008,06,30,04,57,17.60
2008,06,30,04,58,17.60
2008,06,30,04,59,17.60
2008,06,30,05,00,17.60
2008,06,30,05,01,17.50
2008,06,30,05,02,17.50
2008,06,30,05,03,17.50
2008,06,30,05,04,17.50
2008,06,30,05,05,17.50
2008,06,30,05,06,17.40
2008,06,30,05,07,17.40
2008,06,30,05,08,17.40
2008,06,30,05,09,17.40
2008,06,30,05,10,17.40
2008,06,30,05,11,17.40
2008,06,30,05,12,17.40
2008,06,30,05,13,17.40
2008,06,30,05,14,17.40
2008,06,30,05,15,17.40
2008,06,30,05,16,17.40
2008,06,30,05,17,17.40
2008,06,30,05,18,17.40
2008,06,30,05,19,17.40
2008,06,30,05,20,17.40
2008,06,30,05,21,17.40
2008,06,30,05,22,17.30
2008,06,30,05,23,17.30
2008,06,30,05,24,17.30
2008,06,30,05,25,17.30
2008,06,30,05,26,17.30
2008,06,30,05,27,17.20
2008,06,30,05,28,17.20
2008,06,30,05,29,17.20
2008,06,30,05,30,17.20
2008,06,30,05,31,17.10
2008,06,30,05,32,17.10
2008,06,30,05,33,17.10
2008,06,30,05,34,17.10
2008,06,30,05,35,17.10
2008,06,30,05,36,17.10
2008,06,30,05,37,17.10
2008,06,30,05,38,17.00
2008,06,30,05,39,17.00
2008,06,30,05,40,17.00
2008,06,30,05,41,17.00
2008,06,30,05,42,17.00
2008,06,30,05,43,17.00
2008,06,30,05,44,17.00
2008,06,30,05,45,17.00
2008,06,30,05,46,16.90
2008,06,30,05,47,16.90
2008,06,30,05,48,16.90
2008,06,30,05,49,16.90
2008,06,30,05,50,16.90
2008,06,30,05,51,16.90
2008,06,30,05,52,16.90
2008,06,30,05,53,16.90
2008,06,30,05,54,16.90
2008,06,30,05,55,16.90
2008,06,30,05,56,17.00
2008,06,30,05,57,17.00
2008,06,30,05,58,17.00
2008,06,30,05,59,17.10
2008,06,30,06,00,17.10
2008,06,30,06,01,17.10
2008,06,30,06,02,17.20
2008,06,30,06,03,17.20
2008,06,30,06,04,17.30
2008,06,30,06,05,17.30
2008,06,30,06,06,17.30
2008,06,30,06,07,17.40
2008,06,30,06,08,17.40
2008,06,30,06,09,17.40
2008,06,30,06,10,17.40
2008,06,30,06,11,17.40
2008,06,30,06,12,17.50
2008,06,30,06,13,17.50
2008,06,30,06,14,17.50
2008,06,30,06,15,17.50
2008,06,30,06,16,17.50
2008,06,30,06,17,17.50
2008,06,30,06,18,17.50
2008,06,30,06,19,17.50
2008,06,30,06,20,17.50
2008,06,30,06,21,17.50
2008,06,30,06,22,17.60
2008,06,30,06,23,17.60
2008,06,30,06,24,17.60
2008,06,30,06,25,17.60
2008,06,30,06,26,17.60
2008,06,30,06,27,17.60
2008,06,30,06,28,17.60
2008,06,30,06,29,17.60
2008,06,30,06,30,17.60
2008,06,30,06,31,17.60
2008,06,30,06,32,17.60
2008,06,30,06,33,17.60
2008,06,30,06,34,17.60
2008,06,30,06,35,17.60
2008,06,30,06,36,17.60
2008,06,30,06,37,17.60
2008,06,30,06,38,17.60
2008,06,30,06,39,17.60
2008,06,30,06,40,17.60
2008,06,30,06,41,17.60
2008,06,30,06,42,17.60
2008,06,30,06,43,17.60
2008,06,30,06,44,17.60
2008,06,30,06,45,17.60
2008,06,30,06,46,17.60
2008,06,30,06,47,17.70
2008,06,30,06,48,17.70
2008,06,30,06,49,17.70
2008,06,30,06,50,17.80
2008,06,30,06,51,17.80
2008,06,30,06,52,17.80
2008,06,30,06,53,17.80
2008,06,30,06,54,17.80
2008,06,30,06,55,17.90
2008,06,30,06,56,17.90
2008,06,30,06,57,17.90
2008,06,30,06,58,18.00
2008,06,30,06,59,18.00
2008,06,30,07,00,18.10
2008,06,30,07,01,18.10
2008,06,30,07,02,18.10
2008,06,30,07,03,18.20
2008,06,30,07,04,18.20
2008,06,30,07,05,18.20
2008,06,30,07,06,18.30
2008,06,30,07,07,18.30
2008,06,30,07,08,18.30
2008,06,30,07,09,18.30
2008,06,30,07,10,18.40
2008,06,30,07,11,18.40
2008,06,30,07,12,18.40
2008,06,30,07,13,18.40
2008,06,30,07,14,18.40
2008,06,30,07,15,18.50
2008,06,30,07,16,18.50
2008,06,30,07,17,18.50
2008,06,30,07,18,18.50
2008,06,30,07,19,18.50
2008,06,30,07,20,18.50
2008,06,30,07,21,18.50
2008,06,30,07,22,18.50
2008,06,30,07,23,18.50
2008,06,30,07,24,18.60
2008,06,30,07,25,18.60
2008,06,30,07,26,18.70
2008,06,30,07,27,18.70
2008,06,30,07,28,18.70
2008,06,30,07,29,18.80
2008,06,30,07,30,18.80
2008,06,30,07,31,18.80
2008,06,30,07,32,18.90
2008,06,30,07,33,19.00
2008,06,30,07,34,19.00
2008,06,30,07,35,19.10
2008,06,30,07,36,19.20
2008,06,30,07,37,19.20
2008,06,30,07,38,19.30
2008,06,30,07,39,19.30
2008,06,30,07,40,19.30
2008,06,30,07,41,19.40
2008,06,30,07,42,19.50
2008,06,30,07,43,19.60
2008,06,30,07,44,19.70
2008,06,30,07,45,19.70
2008,06,30,07,46,19.80
2008,06,30,07,47,19.90
2008,06,30,07,48,20.00
2008,06,30,07,49,20.00
2008,06,30,07,50,20.10
2008,06,30,07,51,20.20
2008,06,30,07,52,20.20
2008,06,30,07,53,20.20
2008,06,30,07,54,20.20
2008,06,30,07,55,20.20
2008,06,30,07,56,20.20
2008,06,30,07,57,20.20
2008,06,30,07,58,20.20
2008,06,30,07,59,20.20
2008,06,30,08,00,20.30
2008,06,30,08,01,20.30
2008,06,30,08,02,20.30
2008,06,30,08,03,20.30
2008,06,30,08,04,20.30
2008,06,30,08,05,20.30
2008,06,30,08,06,20.40
2008,06,30,08,07,20.40
2008,06,30,08,08,20.40
2008,06,30,08,09,20.40
2008,06,30,08,10,20.40
2008,06,30,08,11,20.40
2008,06,30,08,12,20.30
2008,06,30,08,13,20.10
2008,06,30,08,14,19.90
2008,06,30,08,15,19.70
2008,06,30,08,16,19.50
2008,06,30,08,17,19.40
2008,06,30,08,18,19.30
2008,06,30,08,19,19.10
2008,06,30,08,20,19.00
2008,06,30,08,21,18.80
2008,06,30,08,22,18.70
2008,06,30,08,23,18.70
2008,06,30,08,24,18.70
2008,06,30,08,25,18.70
2008,06,30,08,26,18.70
2008,06,30,08,27,18.70
2008,06,30,08,28,18.80
2008,06,30,08,29,18.80
2008,06,30,08,30,18.90
2008,06,30,08,31,19.00
2008,06,30,08,32,19.10
2008,06,30,08,33,19.10
2008,06,30,08,34,19.20
2008,06,30,08,35,19.30
2008,06,30,08,36,19.40
2008,06,30,08,37,19.40
2008,06,30,08,38,19.50
2008,06,30,08,39,19.60
2008,06,30,08,40,19.70
2008,06,30,08,41,19.80
2008,06,30,08,42,19.90
2008,06,30,08,43,20.00
2008,06,30,08,44,20.00
2008,06,30,08,45,20.20
2008,06,30,08,46,20.20
2008,06,30,08,47,20.30
2008,06,30,08,48,20.30
2008,06,30,08,49,20.40
2008,06,30,08,50,20.40
2008,06,30,08,51,20.30
2008,06,30,08,52,20.30
2008,06,30,08,53,20.30
2008,06,30,08,54,20.30
2008,06,30,08,55,20.20
2008,06,30,08,56,20.10
2008,06,30,08,57,20.10
2008,06,30,08,58,20.00
2008,06,30,08,59,20.00
2008,06,30,09,00,19.90
2008,06,30,09,01,19.90
2008,06,30,09,02,19.90
2008,06,30,09,03,19.90
2008,06,30,09,04,20.00
2008,06,30,09,05,20.00
2008,06,30,09,06,20.00
2008,06,30,09,07,20.10
2008,06,30,09,08,20.10
2008,06,30,09,09,20.10
2008,06,30,09,10,20.10
2008,06,30,09,11,20.10
2008,06,30,09,12,20.10
2008,06,30,09,13,20.10
2008,06,30,09,14,20.10
2008,06,30,09,15,20.20
2008,06,30,09,16,20.20
2008,06,30,09,17,20.30
2008,06,30,09,18,20.40
2008,06,30,09,19,20.50
2008,06,30,09,20,20.60
2008,06,30,09,21,20.80
2008,06,30,09,22,20.90
2008,06,30,09,23,21.10
2008,06,30,09,24,21.20
2008,06,30,09,25,21.30
2008,06,30,09,26,21.40
2008,06,30,09,27,21.50
2008,06,30,09,28,21.60
2008,06,30,09,29,21.80
2008,06,30,09,30,21.80
2008,06,30,09,31,21.80
2008,06,30,09,32,21.90
2008,06,30,09,33,21.90
2008,06,30,09,34,22.00
2008,06,30,09,35,22.00
2008,06,30,09,36,22.00
2008,06,30,09,37,22.10
2008,06,30,09,38,22.00
2008,06,30,09,39,21.90
2008,06,30,09,40,21.80
2008,06,30,09,41,21.80
2008,06,30,09,42,21.80
2008,06,30,09,43,21.80
2008,06,30,09,44,21.70
2008,06,30,09,45,21.70
2008,06,30,09,46,21.70
2008,06,30,09,47,21.70
2008,06,30,09,48,21.70
2008,06,30,09,49,21.60
2008,06,30,09,50,21.60
2008,06,30,09,51,21.60
2008,06,30,09,52,21.60
2008,06,30,09,53,21.60
2008,06,30,09,54,21.60
2008,06,30,09,55,21.60
2008,06,30,09,56,21.70
2008,06,30,09,57,21.80
2008,06,30,09,58,21.80
2008,06,30,09,59,21.80
2008,06,30,10,00,21.80
2008,06,30,10,01,21.90
2008,06,30,10,02,22.00
2008,06,30,10,03,22.10
2008,06,30,10,04,22.20
2008,06,30,10,05,22.30
2008,06,30,10,06,22.40
2008,06,30,10,07,22.50
2008,06,30,10,08,22.70
2008,06,30,10,09,22.80
2008,06,30,10,10,23.00
2008,06,30,10,11,23.20
2008,06,30,10,12,23.30
2008,06,30,10,13,23.50
2008,06,30,10,14,23.60
2008,06,30,10,15,23.70
2008,06,30,10,16,23.60
2008,06,30,10,17,23.50
2008,06,30,10,18,23.50
2008,06,30,10,19,23.50
2008,06,30,10,20,23.40
2008,06,30,10,21,23.40
2008,06,30,10,22,23.50
2008,06,30,10,23,23.50
2008,06,30,10,24,23.50
2008,06,30,10,25,23.40
2008,06,30,10,26,23.40
2008,06,30,10,27,23.30
2008,06,30,10,28,23.30
2008,06,30,10,29,23.20
2008,06,30,10,30,23.20
2008,06,30,10,31,23.20
2008,06,30,10,32,23.10
2008,06,30,10,33,23.00
2008,06,30,10,34,23.00
2008,06,30,10,35,22.90
2008,06,30,10,36,22.90
2008,06,30,10,37,22.70
2008,06,30,10,38,22.60
2008,06,30,10,39,22.50
2008,06,30,10,40,22.40
2008,06,30,10,41,22.30
2008,06,30,10,42,22.20
2008,06,30,10,43,22.10
2008,06,30,10,44,22.00
2008,06,30,10,45,22.00
2008,06,30,10,46,22.10
2008,06,30,10,47,22.10
2008,06,30,10,48,22.10
2008,06,30,10,49,22.10
2008,06,30,10,50,22.10
2008,06,30,10,51,22.10
2008,06,30,10,52,22.10
2008,06,30,10,53,22.10
2008,06,30,10,54,22.20
2008,06,30,10,55,22.20
2008,06,30,10,56,22.30
2008,06,30,10,57,22.40
2008,06,30,10,58,22.40
2008,06,30,10,59,22.50
2008,06,30,11,00,22.60
2008,06,30,11,01,22.70
2008,06,30,11,02,22.70
2008,06,30,11,03,22.70
2008,06,30,11,04,22.70
2008,06,30,11,05,22.80
2008,06,30,11,06,22.80
2008,06,30,11,07,22.80
2008,06,30,11,08,22.80
2008,06,30,11,09,22.80
2008,06,30,11,10,22.70
2008,06,30,11,11,22.70
2008,06,30,11,12,22.60
2008,06,30,11,13,22.60
2008,06,30,11,14,22.60
2008,06,30,11,15,22.60
2008,06,30,11,16,22.60
2008,06,30,11,17,22.50
2008,06,30,11,18,22.50
2008,06,30,11,19,22.40
2008,06,30,11,20,22.40
2008,06,30,11,21,22.40
2008,06,30,11,22,22.50
2008,06,30,11,23,22.60
2008,06,30,11,24,22.70
2008,06,30,11,25,22.80
2008,06,30,11,26,23.00
2008,06,30,11,27,23.10
2008,06,30,11,28,23.30
2008,06,30,11,29,23.40
2008,06,30,11,30,23.50
2008,06,30,11,31,23.50
2008,06,30,11,32,23.50
2008,06,30,11,33,23.50
2008,06,30,11,34,23.40
2008,06,30,11,35,23.30
2008,06,30,11,36,23.20
2008,06,30,11,37,23.10
2008,06,30,11,38,23.10
2008,06,30,11,39,23.00
2008,06,30,11,40,23.00
2008,06,30,11,41,23.00
2008,06,30,11,42,23.10
2008,06,30,11,43,23.10
2008,06,30,11,44,23.00
2008,06,30,11,45,22.90
2008,06,30,11,46,22.90
2008,06,30,11,47,22.90
2008,06,30,11,48,23.00
2008,06,30,11,49,23.10
2008,06,30,11,50,23.10
2008,06,30,11,51,23.10
2008,06,30,11,52,23.10
2008,06,30,11,53,23.10
2008,06,30,11,54,23.10
2008,06,30,11,55,23.10
2008,06,30,11,56,23.10
2008,06,30,11,57,23.20
2008,06,30,11,58,23.30
2008,06,30,11,59,23.30
2008,06,30,12,00,23.40
2008,06,30,12,01,23.60
2008,06,30,12,02,23.60
2008,06,30,12,03,23.60
2008,06,30,12,04,23.60
2008,06,30,12,05,23.60
2008,06,30,12,06,23.60
2008,06,30,12,07,23.60
2008,06,30,12,08,23.70
2008,06,30,12,09,23.90
2008,06,30,12,10,24.10
2008,06,30,12,11,24.10
2008,06,30,12,12,24.10
2008,06,30,12,13,24.10
2008,06,30,12,14,24.00
2008,06,30,12,15,24.00
2008,06,30,12,16,23.90
2008,06,30,12,17,23.90
2008,06,30,12,18,23.90
2008,06,30,12,19,24.00
2008,06,30,12,20,24.10
2008,06,30,12,21,24.10
2008,06,30,12,22,24.30
2008,06,30,12,23,24.40
2008,06,30,12,24,24.60
2008,06,30,12,25,24.70
2008,06,30,12,26,24.70
2008,06,30,12,27,24.70
2008,06,30,12,28,24.80
2008,06,30,12,29,24.90
2008,06,30,12,30,25.00
2008,06,30,12,31,25.20
2008,06,30,12,32,25.30
2008,06,30,12,33,25.30
2008,06,30,12,34,25.30
2008,06,30,12,35,25.40
2008,06,30,12,36,25.40
2008,06,30,12,37,25.60
2008,06,30,12,38,25.70
2008,06,30,12,39,25.80
2008,06,30,12,40,25.80
2008,06,30,12,41,25.80
2008,06,30,12,42,25.80
2008,06,30,12,43,25.80
2008,06,30,12,44,25.80
2008,06,30,12,45,25.70
2008,06,30,12,46,25.70
2008,06,30,12,47,25.60
2008,06,30,12,48,25.60
2008,06,30,12,49,25.60
2008,06,30,12,50,25.50
2008,06,30,12,51,25.50
2008,06,30,12,52,25.40
2008,06,30,12,53,25.30
2008,06,30,12,54,25.30
2008,06,30,12,55,25.20
2008,06,30,12,56,25.00
2008,06,30,12,57,24.90
2008,06,30,12,58,24.90
2008,06,30,12,59,24.80
2008,06,30,13,00,24.70
2008,06,30,13,01,24.70
2008,06,30,13,02,24.60
2008,06,30,13,03,24.50
2008,06,30,13,04,24.40
2008,06,30,13,05,24.40
2008,06,30,13,06,24.40
2008,06,30,13,07,24.40
2008,06,30,13,08,24.40
2008,06,30,13,09,24.40
2008,06,30,13,10,24.40
2008,06,30,13,11,24.40
2008,06,30,13,12,24.30
2008,06,30,13,13,24.30
2008,06,30,13,14,24.30
2008,06,30,13,15,24.40
2008,06,30,13,16,24.40
2008,06,30,13,17,24.50
2008,06,30,13,18,24.60
2008,06,30,13,19,24.60
2008,06,30,13,20,24.70
2008,06,30,13,21,24.70
2008,06,30,13,22,24.80
2008,06,30,13,23,24.90
2008,06,30,13,24,25.00
2008,06,30,13,25,25.10
2008,06,30,13,26,25.10
2008,06,30,13,27,25.20
2008,06,30,13,28,25.20
2008,06,30,13,29,25.30
2008,06,30,13,30,25.30
2008,06,30,13,31,25.30
2008,06,30,13,32,25.30
2008,06,30,13,33,25.30
2008,06,30,13,34,25.30
2008,06,30,13,35,25.40
2008,06,30,13,36,25.50
2008,06,30,13,37,25.60
2008,06,30,13,38,25.70
2008,06,30,13,39,25.80
2008,06,30,13,40,25.90
2008,06,30,13,41,25.90
2008,06,30,13,42,26.00
2008,06,30,13,43,26.00
2008,06,30,13,44,26.10
2008,06,30,13,45,26.00
2008,06,30,13,46,25.90
2008,06,30,13,47,25.90
2008,06,30,13,48,25.90
2008,06,30,13,49,25.90
2008,06,30,13,50,26.00
2008,06,30,13,51,26.00
2008,06,30,13,52,26.10
2008,06,30,13,53,26.20
2008,06,30,13,54,26.30
2008,06,30,13,55,26.40
2008,06,30,13,56,26.50
2008,06,30,13,57,26.60
2008,06,30,13,58,26.70
2008,06,30,13,59,26.90
2008,06,30,14,00,27.00
2008,06,30,14,01,27.10
2008,06,30,14,02,27.30
2008,06,30,14,03,27.40
2008,06,30,14,04,27.40
2008,06,30,14,05,27.50
2008,06,30,14,06,27.60
2008,06,30,14,07,27.60
2008,06,30,14,08,27.60
2008,06,30,14,09,27.60
2008,06,30,14,10,27.60
2008,06,30,14,11,27.50
2008,06,30,14,12,27.50
2008,06,30,14,13,27.40
2008,06,30,14,14,27.30
2008,06,30,14,15,27.10
2008,06,30,14,16,27.00
2008,06,30,14,17,26.90
2008,06,30,14,18,26.90
2008,06,30,14,19,26.80
2008,06,30,14,20,26.80
2008,06,30,14,21,26.70
2008,06,30,14,22,26.60
2008,06,30,14,23,26.60
2008,06,30,14,24,26.60
2008,06,30,14,25,26.50
2008,06,30,14,26,26.50
2008,06,30,14,27,26.60
2008,06,30,14,28,26.70
2008,06,30,14,29,26.70
2008,06,30,14,30,26.70
2008,06,30,14,31,26.70
2008,06,30,14,32,26.60
2008,06,30,14,33,26.60
2008,06,30,14,34,26.50
2008,06,30,14,35,26.50
2008,06,30,14,36,26.50
2008,06,30,14,37,26.50
2008,06,30,14,38,26.50
2008,06,30,14,39,26.40
2008,06,30,14,40,26.40
2008,06,30,14,41,26.50
2008,06,30,14,42,26.50
2008,06,30,14,43,26.60
2008,06,30,14,44,26.60
2008,06,30,14,45,26.80
2008,06,30,14,46,26.80
2008,06,30,14,47,26.80
2008,06,30,14,48,26.80
2008,06,30,14,49,26.90
2008,06,30,14,50,26.90
2008,06,30,14,51,26.90
2008,06,30,14,52,26.90
2008,06,30,14,53,26.80
2008,06,30,14,54,26.70
2008,06,30,14,55,26.60
2008,06,30,14,56,26.50
2008,06,30,14,57,26.40
2008,06,30,14,58,26.30
2008,06,30,14,59,26.20
2008,06,30,15,00,26.20
2008,06,30,15,01,26.10
2008,06,30,15,02,26.00
2008,06,30,15,03,25.90
2008,06,30,15,04,25.90
2008,06,30,15,05,26.00
2008,06,30,15,06,26.10
2008,06,30,15,07,26.20
2008,06,30,15,08,26.20
2008,06,30,15,09,26.20
2008,06,30,15,10,26.20
2008,06,30,15,11,26.20
2008,06,30,15,12,26.20
2008,06,30,15,13,26.30
2008,06,30,15,14,26.40
2008,06,30,15,15,26.50
2008,06,30,15,16,26.60
2008,06,30,15,17,26.80
2008,06,30,15,18,26.90
2008,06,30,15,19,27.00
2008,06,30,15,20,27.10
2008,06,30,15,21,27.20
2008,06,30,15,22,27.20
2008,06,30,15,23,27.30
2008,06,30,15,24,27.30
2008,06,30,15,25,27.30
2008,06,30,15,26,27.30
2008,06,30,15,27,27.30
2008,06,30,15,28,27.30
2008,06,30,15,29,27.30
2008,06,30,15,30,27.20
2008,06,30,15,31,27.20
2008,06,30,15,32,27.10
2008,06,30,15,33,27.10
2008,06,30,15,34,27.20
2008,06,30,15,35,27.20
2008,06,30,15,36,27.20
2008,06,30,15,37,27.20
2008,06,30,15,38,27.20
2008,06,30,15,39,27.30
2008,06,30,15,40,27.30
2008,06,30,15,41,27.40
2008,06,30,15,42,27.40
2008,06,30,15,43,27.40
2008,06,30,15,44,27.40
2008,06,30,15,45,27.50
2008,06,30,15,46,27.60
2008,06,30,15,47,27.70
2008,06,30,15,48,27.70
2008,06,30,15,49,27.80
2008,06,30,15,50,27.80
2008,06,30,15,51,27.90
2008,06,30,15,52,28.00
2008,06,30,15,53,28.20
2008,06,30,15,54,28.30
2008,06,30,15,55,28.40
2008,06,30,15,56,28.40
2008,06,30,15,57,28.50
2008,06,30,15,58,28.40
2008,06,30,15,59,28.30
2008,06,30,16,00,28.10
2008,06,30,16,01,27.90
2008,06,30,16,02,27.70
2008,06,30,16,03,27.40
2008,06,30,16,04,27.20
2008,06,30,16,05,27.20
2008,06,30,16,06,27.10
2008,06,30,16,07,27.00
2008,06,30,16,08,26.80
2008,06,30,16,09,26.80
2008,06,30,16,10,26.70
2008,06,30,16,11,26.60
2008,06,30,16,12,26.50
2008,06,30,16,13,26.50
2008,06,30,16,14,26.50
2008,06,30,16,15,26.60
2008,06,30,16,16,26.70
2008,06,30,16,17,26.70
2008,06,30,16,18,26.80
2008,06,30,16,19,26.80
2008,06,30,16,20,26.90
2008,06,30,16,21,26.90
2008,06,30,16,22,26.80
2008,06,30,16,23,26.80
2008,06,30,16,24,26.80
2008,06,30,16,25,26.70
2008,06,30,16,26,26.70
2008,06,30,16,27,26.60
2008,06,30,16,28,26.60
2008,06,30,16,29,26.50
2008,06,30,16,30,26.50
2008,06,30,16,31,26.50
2008,06,30,16,32,26.50
2008,06,30,16,33,26.50
2008,06,30,16,34,26.50
2008,06,30,16,35,26.50
2008,06,30,16,36,26.40
2008,06,30,16,37,26.30
2008,06,30,16,38,26.30
2008,06,30,16,39,26.30
2008,06,30,16,40,26.30
2008,06,30,16,41,26.30
2008,06,30,16,42,26.30
2008,06,30,16,43,26.40
2008,06,30,16,44,26.40
2008,06,30,16,45,26.50
2008,06,30,16,46,26.50
2008,06,30,16,47,26.60
2008,06,30,16,48,26.70
2008,06,30,16,49,26.80
2008,06,30,16,50,27.00
2008,06,30,16,51,27.10
2008,06,30,16,52,27.10
2008,06,30,16,53,27.20
2008,06,30,16,54,27.20
2008,06,30,16,55,27.20
2008,06,30,16,56,27.30
2008,06,30,16,57,27.40
2008,06,30,16,58,27.40
2008,06,30,16,59,27.50
2008,06,30,17,00,27.50
2008,06,30,17,01,27.60
2008,06,30,17,02,27.60
2008,06,30,17,03,27.60
2008,06,30,17,04,27.70
2008,06,30,17,05,27.80
2008,06,30,17,06,27.90
2008,06,30,17,07,28.00
2008,06,30,17,08,28.10
2008,06,30,17,09,28.10
2008,06,30,17,10,28.10
2008,06,30,17,11,28.10
2008,06,30,17,12,28.00
2008,06,30,17,13,28.00
2008,06,30,17,14,28.00
2008,06,30,17,15,27.90
2008,06,30,17,16,27.90
2008,06,30,17,17,27.90
2008,06,30,17,18,27.80
2008,06,30,17,19,27.70